Regional Weather Roundup
Issued by NWS Glasgow, MT

Home | Current Version | Previous Version | Text Only | Print | Product List | Glossary On
Versions: 1 2 3 4 5 6 7 8 9 10 11 12 13 14 15 16 17 18 19 20 21 22 23 24 25 26 27 28
000
ASUS45 KGGW 300715
RWRGGW
HOURLY REGIONAL WEATHER ROUNDUP FOR NORTHEAST MONTANA
NATIONAL WEATHER SERVICE GLASGOW MONTANA
100 AM MDT TUE AUG 30 2016

NOTE: "FAIR" INDICATES FEW OR NO CLOUDS BELOW 12,000 FEET WITH NO
SIGNIFICANT WEATHER AND/OR OBSTRUCTIONS TO VISISBILITY.

NORTHEAST MONTANA


CITY           SKY/WX    TMP DP  RH WIND       PRES   REMARKS
GLASGOW        PTCLDY    65  43  44 E13       30.14S
PLENTYWOOD       N/A     63  40  42 E7          N/A
WOLF POINT     CLEAR     60  43  53 NE6       30.17F
JORDAN           N/A     66  48  52 E6        30.14F
WINNETT          N/A     57  45  64 N1          N/A
SIDNEY         CLEAR     64  45  49 S5        30.21S
GLENDIVE       CLEAR     64  46  52 CALM      30.22S
MALTA            N/A     66  51  58 N2          N/A

FORT PECK REPORTS


CITY           SKY/WX    TMP DP  RH WIND       PRES   REMARKS
FORT PECK        N/A     68  47  46 E15G24      N/A
THE PINES        N/A     70  52  52 E2          N/A

SOUTHEAST MONTANA


CITY           SKY/WX    TMP DP  RH WIND       PRES   REMARKS
BILLINGS       PTCLDY    70  48  45 N3        30.12F
MILES CITY     PTCLDY    72  43  35 SE9       30.16F
BAKER          CLEAR     62  48  60 SE12      30.24S
LIVINGSTON     CLOUDY    59  45  59 CALM      30.19F

CENTRAL MONTANA


CITY           SKY/WX    TMP DP  RH WIND       PRES   REMARKS
HAVRE          CLOUDY    64  48  56 NE7       30.07S
LEWISTOWN      CLOUDY    68  47  46 E9        30.16F
GREAT FALLS    CLOUDY    68  43  40 NE7       30.10S
CUT BANK       MOCLDY    64  48  56 NE13      30.14F
HELENA         PTCLDY    68  39  34 CALM      30.11R
BUTTE          CLOUDY    58  35  42 SE7       30.22R
BOZEMAN        PTCLDY    61  43  51 S5        30.15S

WESTERN MONTANA


CITY           SKY/WX    TMP DP  RH WIND       PRES   REMARKS
MISSOULA       PTCLDY    65  39  38 CALM      30.06R
KALISPELL      NOT AVBL

NORTH DAKOTA


CITY           SKY/WX    TMP DP  RH WIND       PRES   REMARKS
WILLISTON      CLEAR     57  42  57 N3        30.22S
DICKINSON      CLEAR     54  45  71 SE10      30.24F
MINOT          CLEAR     53  46  77 CALM      30.23F
BISMARCK       CLEAR     55  49  80 NE9       30.25S

SOUTHERN SASKATCHEWAN


CITY           SKY/WX    TMP DP  RH WIND       PRES   REMARKS
REGINA         PTCLDY    55  45  67 E8        30.23S
ESTEVAN        CLEAR     54  45  71 E7        30.23F
SWIFT CURRENT  CLEAR     55  46  71 E13       30.17F





USA.gov is the U.S. government's official web portal to all federal, state and local government web resources and services.